STARLINK-3766 (52296 NORAD) Tracking and Keplerian Element Data

This shows tracking and keplerian element data for the satellite.

Feedback or suggestion? Click here.




ElementValue
Catalog52296
NameSTARLINK-3766
Epoch Orbit130
Epoch Day167.08334491
Epoch Year2022
RAAN101.4766
Inclination53.2172
Eccentricity0.0001231
Argument of Perigee73.9909
Mean Anonmoly201.2335
Mean Motion15.54974254
Decay Rate-0.0071263
L11 52296U 22041AM 22167.08334491 -.00712630 00000+0 -11418-1 0 9999
L22 52296 53.2172 101.4766 0001231 73.9909 201.2335 15.54974254 1301

Live tracking and technical data element details for STARLINK-3766 (NORAD 52296). STARLINK-3766 can be tracked NOW for your location showing map with azimuth and elevation plus other details from your city location.

Track the satellite on the map from your city or location and see movement details for azimuth, elevation, latitude, longitude, range, height, and movement on the map or in text.







IsCatalogInMostPopularTable: catalog: 52296, numindb: 4
Update: records affected: 1



GetName: 52296 STARLINK-3766

Hit Count: updated at: Mon, 27 Jun 2022 06:02:55 GMT